User: anonymous   Login
Location: Rehoboth Beach
(38.7438°N, 75.1341°W)
Time: 20:33:40
(UTC-04:00)
Language:

Cosmos 1452 Rocket - Orbit

View from above orbital plane
View from above orbital plane
View from above satellite
View from above satellite

Ground track
Ground track

The orbit data is extracted from the following two-line orbital elements,

1 13992U 83031B   15085.86727549  .00000321  00000-0  11982-3 0  9996
2 13992 074.0527 058.6864 0006302 246.7590 135.4730 14.35906702672063
Epoch (UTC): 26 March 2015 20:48:52
Eccentricity: 0.0006302
inclination: 74.0527°
perigee height: 767 km
apogee height: 776 km
right ascension of ascending node: 58.6864°
argument of perigee: 246.7590°
revolutions per day: 14.35906702
mean anomaly at epoch: 135.4730°
orbit number at epoch: 67206

The dashed part of the orbit path shows where the satellite is in the earth's shadow,  

DLR